Weather in Kuzomen

Russia / Murmansk Oblast     66°17′16″N   36°51′42″E
temp.,
°C
wind,
m/s
gust,
m/s
humid.,
%
clouds,
%
prec.,
mm/h
press.,
hPa
HPBL,
m
25 june, sat
sat2500:00+12ene33840 0.0 101527
03:00+10e34892 0.0 101753
06:00+10ese34784 0.0 101986
09:00+10sse46785 0.0 1020174
12:00+9sse568117 0.0 1020180
15:00+9se44827 0.0 1020176
18:00+10sse44770 0.0 1020101
21:00+10se46795 0.0 1020111
26 june, sun
sun2600:00+9se588348 0.0 1021135
03:00+9se698086 0.0 1020162
06:00+10se5785100 0.0 1019128
09:00+10sse448573 0.0 101792
12:00+11ssw348720 0.1 1015116
15:00+15nnw4975100 0.1 1015239
18:00+14nne9156865 0.0 1018303
21:00+10ne8137426 0.0 1022558
27 june, mon
mon2700:00+8ne6107625 0.0 1025589
03:00+7nne48815 0.0 1027388
06:00+8nne457589 0.0 1028475
09:00+10nne2469100 0.0 1028226
12:00+12w136435 0.0 1028297
15:00+11w43685 0.0 1028379
18:00+12w34674 0.0 1029378
21:00+10s44791 0.0 1030176
28 june, tue
tue2800:00+7se568611 0.0 1032305
03:00+7sse44838 0.0 1032309
06:00+7sse33806 0.0 1033358
09:00+8ssw33803 0.0 1033327
12:00+8ssw33805 0.0 1033323
15:00+9ssw33790 0.0 1031257
18:00+9ssw23790 0.0 1030174
21:00+9ssw23805 0.0 1029100
29 june, wed
wed2900:00+9sw238241 0.0 102841
03:00+10sw357941 0.0 102783
06:00+11wsw467637 0.0 102699
09:00+11wsw477732 0.0 1024141
12:00+13wsw5972100 0.0 1023186
15:00+16w696711 0.0 1021317
18:00+16wsw68705 0.0 1020256
21:00+15w467697 0.0 101949